{"data":{"norad_id":52356,"epoch":"2026-05-25T04:26:38.930784Z","epoch_age_seconds":52313,"freshness":"FRESH","line1":"1 52356U 22045AB  26145.18517281 -.00000097  00000+0  12017-4 0  9996","line2":"2 52356  53.2142 215.7480 0001098  84.8953 275.2164 15.08838134227337","mean_motion":15.08838134,"eccentricity":0.0001098,"inclination_deg":53.2142,"raan_deg":215.748,"arg_perigee_deg":84.8953,"mean_anomaly_deg":275.2164,"bstar":1.2017e-5,"rev_number":22733,"period_min":95.437672706647,"perigee_km":538.98950869251,"apogee_km":540.50867647844,"semimajor_km":6917.8860925855,"source":"CELESTRAK","updated_at":"2026-05-25T13:38:17.117535Z"}}